CW2615 Weather Reports


Display with metric or nautical units.
time (UTC)temp
F
wind
direction
speed
MPH
gust
MPH
rain 1hr
in
rain 24hr
in
rain mn
in
humidity
%
barometer
mb
20260507210315 50 0 0.0 0.0 0.00 0.00 0.00 57 1010.0
20260507205815 50 0 0.0 0.0 0.00 0.00 0.00 59 1010.0
20260507205335 50 0 0.0 0.0 0.00 0.00 0.00 58 1010.1
20260507204815 50 0 0.0 0.0 0.00 0.00 0.00 60 1010.1
20260507204315 50 0 0.0 0.0 0.00 0.00 0.00 60 1010.1
20260507203815 50 0 0.0 0.0 0.00 0.00 0.00 59 1010.1
20260507203315 50 0 0.0 0.0 0.00 0.00 0.00 60 1010.1
20260507202815 51 0 0.0 0.0 0.00 0.00 0.00 56 1010.1
20260507202315 51 0 0.0 0.0 0.00 0.00 0.00 59 1010.1
20260507201815 51 0 0.0 0.0 0.00 0.00 0.00 59 1010.1
20260507201316 51 0 0.0 0.0 0.00 0.00 0.00 59 1010.2
20260507200815 51 0 0.0 0.0 0.00 0.00 0.00 61 1010.2
20260507200315 50 0 0.0 0.0 0.00 0.00 0.00 59 1010.1
20260507195815 50 0 0.0 0.0 0.00 0.00 0.00 59 1010.4
20260507195315 50 0 0.0 0.0 0.00 0.00 0.00 60 1010.3
20260507194815 50 0 0.0 0.0 0.00 0.00 0.00 60 1010.2
20260507194315 49 0 0.0 0.0 0.00 0.00 0.00 62 1010.3
20260507193815 49 0 0.0 0.0 0.00 0.00 0.00 63 1010.3
20260507193315 49 0 0.0 0.0 0.00 0.00 0.00 63 1010.4
20260507192815 49 0 0.0 0.0 0.00 0.00 0.00 62 1010.3
20260507192315 49 0 0.0 0.0 0.00 0.00 0.00 60 1010.6
20260507191835 49 0 0.0 0.0 0.00 0.00 0.00 61 1010.5
20260507191315 49 0 0.0 0.0 0.00 0.00 0.00 62 1010.5
20260507190835 49 0 0.0 0.0 0.00 0.00 0.00 60 1010.6
20260507190335 50 0 0.0 0.0 0.00 0.00 0.00 64 1010.6
20260507185816 50 0 0.0 0.0 0.00 0.00 0.00 61 1010.7
20260507185315 50 0 0.0 0.0 0.00 0.00 0.00 62 1010.8
20260507184815 50 0 0.0 0.0 0.00 0.00 0.00 61 1010.7
20260507184316 50 0 0.0 0.0 0.00 0.00 0.00 60 1010.8
20260507183816 50 0 0.0 0.0 0.00 0.00 0.00 61 1010.7
20260507183335 50 0 0.0 0.0 0.00 0.00 0.00 61 1010.7
20260507182815 50 0 0.0 0.0 0.00 0.00 0.00 60 1010.8
20260507182315 50 0 0.0 0.0 0.00 0.00 0.00 60 1010.8
20260507181816 50 0 0.0 0.0 0.00 0.00 0.00 58 1010.8
20260507181315 50 0 0.0 0.0 0.00 0.00 0.00 58 1010.8
20260507180815 50 0 0.0 0.0 0.00 0.00 0.00 60 1010.8
20260507180315 50 0 0.0 0.0 0.00 0.00 0.00 60 1010.9
20260507175815 50 0 0.0 0.0 0.00 0.00 0.00 63 1011.0
20260507175335 50 0 0.0 0.0 0.00 0.00 0.00 62 1010.8
20260507174815 50 0 0.0 0.0 0.00 0.00 0.00 62 1010.8
20260507174315 49 0 0.0 0.0 0.00 0.00 0.00 61 1011.0
20260507173815 49 0 0.0 0.0 0.00 0.00 0.00 62 1011.0
20260507173315 49 0 0.0 0.0 0.00 0.00 0.00 62 1011.2
20260507172815 49 0 0.0 0.0 0.00 0.00 0.00 62 1011.1
20260507172315 48 0 0.0 0.0 0.00 0.00 0.00 62 1011.2
20260507171815 48 0 0.0 0.0 0.00 0.00 0.00 61 1011.4
20260507171335 48 0 0.0 0.0 0.00 0.00 0.00 62 1011.4
20260507170816 48 0 0.0 0.0 0.00 0.00 0.00 60 1011.4
20260507170315 48 0 0.0 0.0 0.00 0.00 0.00 62 1011.5
20260507165815 48 0 0.0 0.0 0.00 0.00 0.00 61 1011.6
20260507165315 48 0 0.0 0.0 0.00 0.00 0.00 61 1011.5
20260507164815 49 0 0.0 0.0 0.00 0.00 0.00 66 1011.7
20260507164315 48 0 0.0 0.0 0.00 0.00 0.00 64 1011.6
20260507163815 48 0 0.0 0.0 0.00 0.00 0.00 64 1011.7
20260507163315 48 0 0.0 0.0 0.00 0.00 0.00 64 1011.7
20260507162815 48 0 0.0 0.0 0.00 0.00 0.00 63 1011.7
20260507162315 48 0 0.0 0.0 0.00 0.00 0.00 63 1011.8
20260507161815 49 0 0.0 0.0 0.00 0.00 0.00 63 1011.9
20260507161315 48 0 0.0 0.0 0.00 0.00 0.00 64 1011.8
20260507160816 48 0 0.0 0.0 0.00 0.00 0.00 65 1011.8
20260507160315 48 0 0.0 0.0 0.00 0.00 0.00 66 1011.9
20260507155835 48 0 0.0 0.0 0.00 0.00 0.00 66 1012.0
20260507155315 47 0 0.0 0.0 0.00 0.00 0.00 67 1012.0
20260507154835 47 0 0.0 0.0 0.00 0.00 0.00 70 1012.1
20260507154315 47 0 0.0 0.0 0.00 0.00 0.00 70 1012.1
20260507153835 47 0 0.0 0.0 0.00 0.00 0.00 70 1012.0
20260507153316 47 0 0.0 0.0 0.00 0.00 0.00 71 1012.1
20260507152815 47 0 0.0 0.0 0.00 0.00 0.00 71 1012.1
20260507152336 47 0 0.0 0.0 0.00 0.00 0.00 70 1012.2
20260507151815 47 0 0.0 0.0 0.00 0.00 0.00 72 1012.2
20260507151315 47 0 0.0 0.0 0.00 0.00 0.00 75 1012.1
20260507150815 47 0 0.0 0.0 0.00 0.00 0.00 76 1012.3
20260507150316 46 0 0.0 0.0 0.00 0.00 0.00 73 1012.2
20260507145855 46 0 0.0 0.0 0.00 0.00 0.00 78 1012.2
20260507145315 46 0 0.0 0.0 0.00 0.00 0.00 80 1012.2
20260507144835 45 0 0.0 0.0 0.00 0.00 0.00 80 1012.2
20260507144335 44 0 0.0 0.0 0.00 0.00 0.00 81 1012.2
20260507143815 44 0 0.0 0.0 0.00 0.00 0.00 82 1012.2
20260507143315 44 0 0.0 0.0 0.00 0.00 0.00 82 1012.3
20260507142815 43 0 0.0 0.0 0.00 0.00 0.00 84 1012.3
20260507142315 43 0 0.0 0.0 0.00 0.00 0.00 84 1012.5
20260507141815 43 0 0.0 0.0 0.00 0.00 0.00 86 1012.3
20260507141315 42 0 0.0 0.0 0.00 0.00 0.00 85 1012.3
20260507140815 42 0 0.0 0.0 0.00 0.00 0.00 87 1012.3
20260507140315 42 0 0.0 0.0 0.00 0.00 0.00 87 1012.4
20260507135815 42 0 0.0 0.0 0.00 0.00 0.00 86 1012.3
20260507135315 42 0 0.0 0.0 0.00 0.00 0.00 86 1012.3
20260507134816 42 0 0.0 0.0 0.00 0.00 0.00 86 1012.3
20260507134316 42 0 0.0 0.0 0.00 0.00 0.00 87 1012.3
20260507133815 42 0 0.0 0.0 0.00 0.00 0.00 88 1012.3
20260507133316 42 0 0.0 0.0 0.00 0.00 0.00 88 1012.2
20260507132835 42 0 0.0 0.0 0.00 0.00 0.00 92 1012.3
20260507132315 41 0 0.0 0.0 0.00 0.00 0.00 91 1012.2
20260507131816 41 0 0.0 0.0 0.00 0.00 0.00 91 1012.2
20260507131335 40 0 0.0 0.0 0.00 0.00 0.00 93 1012.2
20260507130816 40 0 0.0 0.0 0.00 0.00 0.00 94 1012.1
20260507130315 40 0 0.0 0.0 0.00 0.00 0.00 94 1012.1
20260507125815 39 0 0.0 0.0 0.00 0.00 0.00 95 1012.2
20260507125315 38 0 0.0 0.0 0.00 0.00 0.00 95 1012.2
20260507124815 38 0 0.0 0.0 0.00 0.00 0.00 95 1012.2
20260507124336 38 0 0.0 0.0 0.00 0.00 0.00 96 1012.1
20260507123815 37 0 0.0 0.0 0.00 0.00 0.00 95 1012.2
20260507123316 37 0 0.0 0.0 0.00 0.00 0.00 96 1012.1
20260507122835 36 0 0.0 0.0 0.00 0.00 0.00 97 1012.3
20260507122335 36 0 0.0 0.0 0.00 0.00 0.00 98 1012.1
20260507121815 36 0 0.0 0.0 0.00 0.00 0.00 98 1012.1
20260507121335 35 0 0.0 0.0 0.00 0.00 0.00 99 1012.2
20260507120815 35 0 0.0 0.0 0.00 0.00 0.00 100 1012.0
20260507120315 34 0 0.0 0.0 0.00 0.00 0.00 100 1012.0
20260507115816 34 0 0.0 0.0 0.00 0.00 0.00 100 1012.0
20260507115315 33 0 0.0 0.0 0.00 0.00 0.00 100 1011.8
20260507114835 33 0 0.0 0.0 0.00 0.00 0.00 100 1011.7
20260507114315 32 0 0.0 0.0 0.00 0.00 0.00 100 1011.7
20260507113915 32 0 0.0 0.0 0.00 0.00 0.00 100 1011.7
20260507113336 31 0 0.0 0.0 0.00 0.00 0.00 100 1011.6
20260507112815 31 0 0.0 0.0 0.00 0.00 0.00 100 1011.6
20260507112315 30 0 0.0 0.0 0.00 0.00 0.00 100 1011.6
20260507111815 30 0 0.0 0.0 0.00 0.00 0.00 100 1011.6
20260507111315 30 0 0.0 0.0 0.00 0.00 0.00 100 1011.4
20260507110835 30 0 0.0 0.0 0.00 0.00 0.00 100 1011.5
20260507110316 29 0 0.0 0.0 0.00 0.00 0.00 100 1011.4
20260507105835 29 0 0.0 0.0 0.00 0.00 0.00 100 1011.4
20260507105315 29 0 0.0 0.0 0.00 0.00 0.00 100 1011.4
20260507104815 29 0 0.0 0.0 0.00 0.00 0.00 100 1011.4
20260507104315 29 0 0.0 0.0 0.00 0.00 0.00 100 1011.3
20260507103836 29 0 0.0 0.0 0.00 0.00 0.00 100 1011.2
20260507103315 29 0 0.0 0.0 0.00 0.00 0.00 100 1011.3
20260507102816 29 0 0.0 0.0 0.00 0.00 0.00 100 1011.2
20260507102315 29 0 0.0 0.0 0.00 0.00 0.00 100 1011.3
20260507101856 29 0 0.0 0.0 0.00 0.00 0.00 100 1011.2
20260507101316 30 0 0.0 0.0 0.00 0.00 0.00 100 1011.3
20260507100816 30 0 0.0 0.0 0.00 0.00 0.00 100 1011.3
20260507100316 30 0 0.0 0.0 0.00 0.00 0.00 100 1011.3
20260507095815 30 0 0.0 0.0 0.00 0.00 0.00 100 1011.2
20260507095315 30 0 0.0 0.0 0.00 0.00 0.00 100 1011.3
20260507094855 30 0 0.0 0.0 0.00 0.00 0.00 100 1011.3
20260507094316 30 0 0.0 0.0 0.00 0.00 0.00 100 1011.4
20260507093816 30 0 0.0 0.0 0.00 0.00 0.00 100 1011.3
20260507093315 30 0 0.0 0.0 0.00 0.00 0.00 100 1011.1
20260507092815 31 0 0.0 0.0 0.00 0.00 0.00 100 1011.3
20260507092315 31 0 0.0 0.0 0.00 0.00 0.00 100 1011.4
20260507091815 31 0 0.0 0.0 0.00 0.00 0.00 100 1011.4
20260507091315 31 0 0.0 0.0 0.00 0.00 0.00 100 1011.5
20260507090815 31 0 0.0 0.0 0.00 0.00 0.00 100 1011.6
20260507090315 31 0 0.0 0.0 0.00 0.00 0.00 100 1011.6
20260507085815 31 0 0.0 0.0 0.00 0.00 0.00 100 1011.8
20260507085316 31 0 0.0 0.0 0.00 0.00 0.00 100 1011.5
20260507084815 31 0 0.0 0.0 0.00 0.00 0.00 100 1011.7
20260507084316 30 0 0.0 0.0 0.00 0.00 0.00 100 1011.8
20260507083816 30 0 0.0 0.0 0.00 0.00 0.00 100 1011.7
20260507083315 30 0 0.0 0.0 0.00 0.00 0.00 100 1011.9
20260507082815 30 0 0.0 0.0 0.00 0.00 0.00 100 1011.9
20260507082335 30 0 0.0 0.0 0.00 0.00 0.00 100 1011.8
20260507081815 30 0 0.0 0.0 0.00 0.00 0.00 100 1011.7
20260507081316 30 0 0.0 0.0 0.00 0.00 0.00 100 1011.8
20260507080815 30 0 0.0 0.0 0.00 0.00 0.00 100 1011.8
20260507080335 30 0 0.0 0.0 0.00 0.00 0.00 100 1011.8
20260507075815 31 0 0.0 0.0 0.00 0.00 0.00 100 1011.8
20260507075315 31 0 0.0 0.0 0.00 0.00 0.00 99 1011.9
20260507074816 31 0 0.0 0.0 0.00 0.00 0.00 99 1011.8
20260507074315 32 0 0.0 0.0 0.00 0.00 0.00 100 1012.0
20260507073815 32 0 0.0 0.0 0.00 0.00 0.00 100 1011.8
20260507073315 32 0 0.0 0.0 0.00 0.00 0.00 100 1011.9
20260507072815 32 0 0.0 0.0 0.00 0.00 0.00 99 1011.8
20260507072315 32 0 0.0 0.0 0.00 0.00 0.00 99 1011.8
20260507071815 32 0 0.0 0.0 0.00 0.00 0.00 99 1011.9
20260507071335 32 0 0.0 0.0 0.00 0.00 0.00 99 1012.0
20260507070815 32 0 0.0 0.0 0.00 0.00 0.00 99 1012.0
20260507070336 32 0 0.0 0.0 0.00 0.00 0.00 98 1012.0
20260507065835 32 0 0.0 0.0 0.00 0.00 0.00 98 1012.1
20260507065315 32 0 0.0 0.0 0.00 0.00 0.00 98 1012.1
20260507064815 32 0 0.0 0.0 0.00 0.00 0.00 98 1012.3
20260507064315 32 0 0.0 0.0 0.00 0.00 0.00 97 1012.3
20260507063815 32 0 0.0 0.0 0.00 0.00 0.00 97 1012.4
20260507063315 32 0 0.0 0.0 0.00 0.00 0.00 97 1012.3
20260507062815 32 0 0.0 0.0 0.00 0.00 0.00 97 1012.4
20260507062316 32 0 0.0 0.0 0.00 0.00 0.00 96 1012.5
20260507061815 32 0 0.0 0.0 0.00 0.00 0.00 95 1012.4
20260507061315 32 0 0.0 0.0 0.00 0.00 0.00 96 1012.6
20260507060836 32 0 0.0 0.0 0.00 0.00 0.00 95 1012.5
20260507060315 32 0 0.0 0.0 0.00 0.00 0.00 95 1012.5
20260507055815 32 0 0.0 0.0 0.00 0.00 0.00 94 1012.6
20260507055316 32 0 0.0 0.0 0.00 0.00 0.00 94 1012.6
20260507054815 33 0 0.0 0.0 0.00 0.00 0.00 94 1012.6
20260507054336 33 0 0.0 0.0 0.00 0.00 0.00 92 1012.7
20260507053815 34 0 0.0 0.0 0.00 0.00 0.00 92 1012.7
20260507053315 34 0 0.0 0.0 0.00 0.00 0.00 92 1012.8
20260507052816 34 0 0.0 0.0 0.00 0.00 0.00 92 1012.8
20260507052315 34 0 0.0 0.0 0.00 0.00 0.00 92 1012.8
20260507051815 34 0 0.0 0.0 0.00 0.00 0.00 92 1012.9
20260507051335 34 0 0.0 0.0 0.00 0.00 0.00 91 1012.9
20260507050835 35 0 0.0 0.0 0.00 0.00 0.00 91 1012.9
20260507050316 35 0 0.0 0.0 0.00 0.00 0.00 91 1012.9
20260507045815 35 0 0.0 0.0 0.00 0.00 0.00 92 1012.9
20260507045335 35 0 0.0 0.0 0.00 0.00 0.00 92 1012.9
20260507044835 36 0 0.0 0.0 0.00 0.00 0.00 92 1013.0
20260507044316 36 0 0.0 0.0 0.00 0.00 0.00 91 1012.9
20260507043816 36 0 0.0 0.0 0.00 0.00 0.00 88 1012.8
20260507043336 36 0 0.0 0.0 0.00 0.00 0.00 87 1012.9
20260507042815 36 0 0.0 0.0 0.00 0.00 0.00 87 1012.8
20260507042335 37 0 0.0 0.0 0.00 0.00 0.00 85 1012.9
20260507041816 37 0 0.0 0.0 0.00 0.00 0.00 85 1012.9
20260507041315 37 0 0.0 0.0 0.00 0.00 0.00 84 1012.9
20260507040815 37 0 0.0 0.0 0.00 0.00 0.00 85 1013.0
20260507040315 37 0 0.0 0.0 0.00 0.00 0.00 86 1012.9
20260507035816 37 0 0.0 0.0 0.00 0.00 0.00 84 1013.0
20260507035335 37 0 0.0 0.0 0.00 0.00 0.00 83 1013.0
20260507034815 37 0 0.0 0.0 0.00 0.00 0.00 83 1012.9
20260507034316 38 0 0.0 0.0 0.00 0.00 0.00 82 1013.0
20260507033815 38 0 0.0 0.0 0.00 0.00 0.00 83 1012.8
20260507033315 38 0 0.0 0.0 0.00 0.00 0.00 83 1013.0
20260507032835 38 0 0.0 0.0 0.00 0.00 0.00 83 1013.0
20260507032316 38 0 0.0 0.0 0.00 0.00 0.00 83 1013.2
20260507031815 38 0 0.0 0.0 0.00 0.00 0.00 83 1013.1
20260507031335 38 0 0.0 0.0 0.00 0.00 0.00 82 1013.0
20260507030815 38 0 0.0 0.0 0.00 0.00 0.00 81 1013.1
20260507030315 38 0 0.0 0.0 0.00 0.00 0.00 83 1013.2
20260507025836 38 0 0.0 0.0 0.00 0.00 0.00 81 1013.1
20260507025315 38 0 0.0 0.0 0.00 0.00 0.00 81 1013.0
20260507024836 39 0 0.0 0.0 0.00 0.00 0.00 81 1013.0
20260507024335 39 0 0.0 0.0 0.00 0.00 0.00 81 1013.1
20260507023815 39 0 0.0 0.0 0.00 0.00 0.00 81 1013.1
20260507023315 39 0 0.0 0.0 0.00 0.00 0.00 79 1013.0
20260507022815 39 0 0.0 0.0 0.00 0.00 0.00 79 1013.0
20260507022315 39 0 0.0 0.0 0.00 0.00 0.00 79 1012.9
20260507021815 39 0 0.0 0.0 0.00 0.00 0.00 79 1012.8
20260507021316 39 0 0.0 0.0 0.00 0.00 0.00 78 1012.9
20260507020816 39 0 0.0 0.0 0.00 0.00 0.00 78 1012.8
20260507020316 39 0 0.0 0.0 0.00 0.00 0.00 78 1012.9
20260507015816 39 0 0.0 0.0 0.00 0.00 0.00 78 1012.9
20260507015335 39 0 0.0 0.0 0.00 0.00 0.00 77 1012.8
20260507014816 39 0 0.0 0.0 0.00 0.00 0.00 78 1012.9
20260507014316 39 0 0.0 0.0 0.00 0.00 0.00 78 1013.0
20260507013815 39 0 0.0 0.0 0.00 0.00 0.00 78 1012.8
20260507013316 39 0 0.0 0.0 0.00 0.00 0.00 77 1012.7
20260507012816 40 0 0.0 0.0 0.00 0.00 0.00 77 1012.8
20260507012315 40 0 0.0 0.0 0.00 0.00 0.00 77 1012.7
20260507011815 40 0 0.0 0.0 0.00 0.00 0.00 75 1012.7
20260507011316 40 0 0.0 0.0 0.00 0.00 0.00 77 1012.8
20260507010816 40 0 0.0 0.0 0.00 0.00 0.00 75 1012.7
20260507010316 40 0 0.0 0.0 0.00 0.00 0.00 74 1012.6
20260507005816 40 0 0.0 0.0 0.00 0.00 0.00 74 1012.5
20260507005316 40 0 0.0 0.0 0.00 0.00 0.00 74 1012.7
20260507004815 41 0 0.0 0.0 0.00 0.00 0.00 74 1012.6
20260507004315 41 0 0.0 0.0 0.00 0.00 0.00 73 1012.6
20260507003815 41 0 0.0 0.0 0.00 0.00 0.00 73 1012.7
20260507003315 41 0 0.0 0.0 0.00 0.00 0.00 74 1012.7
20260507002816 41 0 0.0 0.0 0.00 0.00 0.00 72 1012.6
20260507002315 41 0 0.0 0.0 0.00 0.00 0.00 73 1012.6
20260507001816 41 0 0.0 0.0 0.00 0.00 0.00 70 1012.5
20260507001316 41 0 0.0 0.0 0.00 0.00 0.00 71 1012.5
20260507000815 42 0 0.0 0.0 0.00 0.00 0.00 71 1012.4
20260507000315 42 0 0.0 0.0 0.00 0.00 0.00 71 1012.4
20260506235835 42 0 0.0 0.0 0.00 0.00 0.00 72 1012.5
20260506235315 42 0 0.0 0.0 0.00 0.00 0.00 71 1012.4
20260506234836 42 0 0.0 0.0 0.00 0.00 0.00 71 1012.5
20260506234315 42 0 0.0 0.0 0.00 0.00 0.00 71 1012.5
20260506233815 42 0 0.0 0.0 0.00 0.00 0.00 70 1012.4
20260506233316 42 0 0.0 0.0 0.00 0.00 0.00 70 1012.4
20260506232816 42 0 0.0 0.0 0.00 0.00 0.00 70 1012.5
20260506232316 42 0 0.0 0.0 0.00 0.00 0.00 68 1012.5
20260506231815 42 0 0.0 0.0 0.00 0.00 0.00 72 1012.5
20260506231335 42 0 0.0 0.0 0.00 0.00 0.00 71 1012.4
20260506230836 42 0 0.0 0.0 0.00 0.00 0.00 70 1012.5
20260506230315 42 0 0.0 0.0 0.00 0.00 0.00 68 1012.7
20260506225816 42 0 0.0 0.0 0.00 0.00 0.00 68 1012.5
20260506225316 43 0 0.0 0.0 0.00 0.00 0.00 68 1012.5
20260506224816 43 0 0.0 0.0 0.00 0.00 0.00 68 1012.6
20260506224315 43 0 0.0 0.0 0.00 0.00 0.00 68 1012.6
20260506223836 43 0 0.0 0.0 0.00 0.00 0.00 67 1012.6
20260506223315 43 0 0.0 0.0 0.00 0.00 0.00 67 1012.5
20260506222815 43 0 0.0 0.0 0.00 0.00 0.00 67 1012.5
20260506222315 44 0 0.0 0.0 0.00 0.00 0.00 66 1012.5
20260506221816 44 0 0.0 0.0 0.00 0.00 0.00 67 1012.4
20260506221355 44 0 0.0 0.0 0.00 0.00 0.00 67 1012.6
20260506220815 44 0 0.0 0.0 0.00 0.00 0.00 66 1012.6
20260506220316 44 0 0.0 0.0 0.00 0.00 0.00 67 1012.6
20260506215815 44 0 0.0 0.0 0.00 0.00 0.00 65 1012.6
20260506215316 44 0 0.0 0.0 0.00 0.00 0.00 66 1012.5
20260506214835 45 0 0.0 0.0 0.00 0.00 0.00 64 1012.5
20260506214335 45 0 0.0 0.0 0.00 0.00 0.00 65 1012.5
20260506213816 45 0 0.0 0.0 0.00 0.00 0.00 67 1012.6
20260506213315 45 0 0.0 0.0 0.00 0.00 0.00 66 1012.6
20260506212835 45 0 0.0 0.0 0.00 0.00 0.00 64 1012.6
20260506212315 45 0 0.0 0.0 0.00 0.00 0.00 67 1012.5
20260506211815 45 0 0.0 0.0 0.00 0.00 0.00 66 1012.6
20260506211315 45 0 0.0 0.0 0.00 0.00 0.00 64 1012.5
20260506210815 46 0 0.0 0.0 0.00 0.00 0.00 63 1012.5